Location: Bosdarros
(43.2167°N, 0.3667°W)
Time: 02:40:25
(UTC+00:00)

Cosmos 2237 Rocket - Pass Details

Date: 22 April 2021
Orbit: 836 x 849 km, 71.0° (Epoch: 15 May)

Event Time Altitude Azimuth Distance (km) Brightness Sun altitude
Rises 20:18:47 0° 335° (NNW) 3,401 6.4 -14.9°
Reaches altitude 10° 20:21:14 10° 335° (NNW) 2,461 5.5 -15.3°
Maximum altitude 20:26:54 90° 38° (NE) 843 2.1 -16.1°
Enters shadow 20:30:39 22° 157° (SSE) 1,750 3.4 -16.7°
